FW5359 Weather Reports


Display with metric or nautical units.
time (UTC)temp
F
wind
direction
speed
MPH
gust
MPH
rain 1hr
in
rain 24hr
in
rain mn
in
humidity
%
barometer
mb
20210922133849 67 50 4.0 14.0 0.00 0.00 0.00 48 983.5
20210922133346 67 35 4.0 14.0 0.00 0.00 0.00 48 983.4
20210922132849 67 21 4.0 12.0 0.00 0.00 0.00 48 983.4
20210922132345 67 60 4.0 12.0 0.00 0.00 0.00 47 983.4
20210922131845 67 49 4.0 12.0 0.00 0.00 0.00 47 983.3
20210922131344 67 58 4.0 12.0 0.00 0.00 0.00 47 983.2
20210922130841 67 78 4.0 15.0 0.00 0.00 0.00 47 983.2
20210922130342 67 179 4.0 15.0 0.00 0.00 0.00 46 983.1
20210922125841 67 50 5.0 17.0 0.00 0.00 0.00 46 983.0
20210922125340 67 74 4.0 17.0 0.00 0.00 0.00 46 983.0
20210922124839 68 49 4.0 14.0 0.00 0.00 0.00 45 983.1
20210922124339 68 5 4.0 14.0 0.00 0.00 0.00 45 983.1
20210922123839 68 17 5.0 14.0 0.00 0.00 0.00 45 982.9
20210922123340 68 67 5.0 14.0 0.00 0.00 0.00 46 982.9
20210922122842 68 53 5.0 12.0 0.00 0.00 0.00 46 982.8
20210922122342 68 67 4.0 12.0 0.00 0.00 0.00 46 982.9
20210922121836 68 66 5.0 13.0 0.00 0.00 0.00 46 982.8
20210922121330 68 48 5.0 14.0 0.00 0.00 0.00 46 982.9
20210922120824 68 31 4.0 16.0 0.00 0.00 0.00 46 982.8
20210922120318 68 41 4.0 16.0 0.00 0.00 0.00 46 982.7
20210922115812 68 5 4.0 13.0 0.00 0.00 0.00 46 982.7
20210922115306 69 52 4.0 15.0 0.00 0.00 0.00 46 982.7
20210922114800 69 64 4.0 15.0 0.00 0.00 0.00 46 982.7
20210922114254 69 30 4.0 14.0 0.00 0.00 0.00 45 982.7
20210922113748 69 15 4.0 12.0 0.00 0.00 0.00 45 982.6
20210922113242 69 66 4.0 15.0 0.00 0.00 0.00 45 982.6
20210922112736 69 84 4.0 14.0 0.00 0.00 0.00 45 982.5
20210922112229 69 60 4.0 14.0 0.00 0.00 0.00 46 982.5
20210922111724 69 86 3.0 10.0 0.00 0.00 0.00 46 982.3
20210922111219 69 16 4.0 13.0 0.00 0.00 0.00 45 982.2
20210922110713 69 24 4.0 15.0 0.00 0.00 0.00 45 982.1
20210922110206 69 74 5.0 15.0 0.00 0.00 0.00 45 982.0
20210922105701 69 60 4.0 14.0 0.00 0.00 0.00 44 982.0
20210922105153 69 40 4.0 14.0 0.00 0.00 0.00 45 981.9
20210922104648 69 57 4.0 14.0 0.00 0.00 0.00 44 981.9
20210922104143 70 97 4.0 14.0 0.00 0.00 0.00 44 981.8
20210922103636 70 55 5.0 16.0 0.00 0.00 0.00 44 981.9
20210922103129 70 51 5.0 16.0 0.00 0.00 0.00 43 981.7
20210922102624 70 63 5.0 14.0 0.00 0.00 0.00 43 981.7
20210922102117 70 67 5.0 12.0 0.00 0.00 0.00 43 981.5
20210922101611 70 47 4.0 12.0 0.00 0.00 0.00 43 981.5
20210922101106 70 85 5.0 11.0 0.00 0.00 0.00 43 981.5
20210922100600 71 66 6.0 16.0 0.00 0.00 0.00 43 981.4
20210922100053 71 34 6.0 21.0 0.00 0.00 0.00 42 981.2
20210922095548 71 49 6.0 21.0 0.00 0.00 0.00 42 981.2
20210922095041 71 62 5.0 17.0 0.00 0.00 0.00 42 981.2
20210922094538 71 46 5.0 16.0 0.00 0.00 0.00 41 981.2
20210922094030 71 29 7.0 19.0 0.00 0.00 0.00 41 981.1
20210922093523 72 17 7.0 19.0 0.00 0.00 0.00 41 981.1
20210922093023 72 72 6.0 18.0 0.00 0.00 0.00 40 981.0
20210922092523 72 90 6.0 18.0 0.00 0.00 0.00 40 980.9
20210922092023 72 88 5.0 15.0 0.00 0.00 0.00 40 980.9
20210922091523 72 38 5.0 19.0 0.00 0.00 0.00 40 980.9
20210922091023 72 39 5.0 19.0 0.00 0.00 0.00 40 980.8
20210922090524 72 78 5.0 19.0 0.00 0.00 0.00 40 980.9
20210922090023 73 65 6.0 19.0 0.00 0.00 0.00 39 980.8
20210922085524 73 34 5.0 16.0 0.00 0.00 0.00 39 980.8
20210922085022 73 89 5.0 12.0 0.00 0.00 0.00 39 980.8
20210922084522 73 59 4.0 11.0 0.00 0.00 0.00 40 980.8
20210922084021 73 28 4.0 12.0 0.00 0.00 0.00 40 980.8
20210922083521 73 32 5.0 15.0 0.00 0.00 0.00 40 980.7
20210922083021 73 40 6.0 15.0 0.00 0.00 0.00 39 980.7
20210922082521 73 67 5.0 15.0 0.00 0.00 0.00 39 980.6
20210922082020 73 38 4.0 12.0 0.00 0.00 0.00 39 980.6
20210922081521 73 40 5.0 17.0 0.00 0.00 0.00 39 980.5
20210922081021 74 80 5.0 17.0 0.00 0.00 0.00 39 980.3
20210922080521 74 37 4.0 14.0 0.00 0.00 0.00 39 980.2
20210922080021 74 26 5.0 14.0 0.00 0.00 0.00 39 980.0
20210922075521 74 48 5.0 13.0 0.00 0.00 0.00 39 980.0
20210922075021 74 55 4.0 12.0 0.00 0.00 0.00 39 980.0
20210922074521 74 76 5.0 19.0 0.00 0.00 0.00 39 979.8
20210922074021 74 67 6.0 19.0 0.00 0.00 0.00 38 979.8
20210922073517 74 51 5.0 13.0 0.00 0.00 0.00 38 979.7
20210922073017 74 78 5.0 15.0 0.00 0.00 0.00 38 979.6
20210922072516 75 42 6.0 16.0 0.00 0.00 0.00 38 979.7
20210922072017 75 46 7.0 21.0 0.00 0.00 0.00 38 979.7
20210922071517 75 45 7.0 21.0 0.00 0.00 0.00 38 979.7
20210922071016 75 49 6.0 20.0 0.00 0.00 0.00 38 979.7
20210922070517 75 36 7.0 20.0 0.00 0.00 0.00 37 979.7
20210922070017 75 62 7.0 20.0 0.00 0.00 0.00 37 979.6
20210922065517 75 15 6.0 18.0 0.00 0.00 0.00 37 979.6
20210922065013 76 42 7.0 18.0 0.00 0.00 0.00 37 979.7
20210922064513 76 61 6.0 18.0 0.00 0.00 0.00 37 979.9
20210922064016 76 55 6.0 18.0 0.00 0.00 0.00 37 980.0
20210922063515 76 39 7.0 18.0 0.00 0.00 0.00 36 979.9
20210922063011 76 43 6.0 14.0 0.00 0.00 0.00 36 980.0
20210922062511 76 46 6.0 16.0 0.00 0.00 0.00 36 980.0
20210922062009 76 38 5.0 16.0 0.00 0.00 0.00 36 980.1
20210922061509 77 15 5.0 17.0 0.00 0.00 0.00 36 980.2
20210922061010 77 38 6.0 17.0 0.00 0.00 0.00 36 980.2
20210922060506 77 92 6.0 14.0 0.00 0.00 0.00 35 980.1
20210922060006 77 31 6.0 20.0 0.00 0.00 0.00 35 980.1
20210922055506 77 11 7.0 20.0 0.00 0.00 0.00 35 979.9
20210922055007 78 68 8.0 22.0 0.00 0.00 0.00 35 979.8
20210922054507 78 71 7.0 22.0 0.00 0.00 0.00 36 979.9
20210922054009 78 36 6.0 19.0 0.00 0.00 0.00 37 979.9
20210922053503 78 129 6.0 19.0 0.00 0.00 0.00 37 980.0
20210922053004 78 36 7.0 18.0 0.00 0.00 0.00 36 979.8
20210922052501 78 11 6.0 19.0 0.00 0.00 0.00 36 979.8
20210922052000 79 5 5.0 19.0 0.00 0.00 0.00 36 979.9
20210922051501 79 69 6.0 20.0 0.00 0.00 0.00 36 980.0
20210922050959 79 55 6.0 20.0 0.00 0.00 0.00 37 979.9
20210922050457 79 38 5.0 15.0 0.00 0.00 0.00 37 980.0
20210922045955 79 38 5.0 15.0 0.00 0.00 0.00 37 980.1
20210922045453 79 13 5.0 15.0 0.00 0.00 0.00 38 980.2
20210922044954 80 355 5.0 15.0 0.00 0.00 0.00 38 980.2
20210922044451 80 42 4.0 15.0 0.00 0.00 0.00 38 980.1
20210922043951 80 22 5.0 15.0 0.00 0.00 0.00 38 980.1
20210922043450 80 40 5.0 15.0 0.00 0.00 0.00 38 980.1
20210922042951 80 53 5.0 15.0 0.00 0.00 0.00 38 980.1
20210922042450 80 76 6.0 18.0 0.00 0.00 0.00 39 980.1
20210922041950 80 5 5.0 18.0 0.00 0.00 0.00 39 980.1
20210922041450 80 79 4.0 14.0 0.00 0.00 0.00 40 980.0
20210922040950 80 34 4.0 11.0 0.00 0.00 0.00 41 979.9
20210922040450 80 25 4.0 13.0 0.00 0.00 0.00 41 979.9
20210922035949 80 62 5.0 16.0 0.00 0.00 0.00 42 979.7
20210922035450 80 55 5.0 16.0 0.00 0.00 0.00 42 979.7
20210922034950 80 22 4.0 15.0 0.00 0.00 0.00 43 979.5
20210922034449 80 55 4.0 15.0 0.00 0.00 0.00 44 979.5
20210922033946 80 34 3.0 11.0 0.00 0.00 0.00 44 979.5
20210922033446 81 48 5.0 13.0 0.00 0.00 0.00 44 979.3
20210922032946 81 66 5.0 14.0 0.00 0.00 0.00 44 979.2
20210922032446 81 40 5.0 14.0 0.00 0.00 0.00 44 979.0
20210922031945 81 39 5.0 14.0 0.00 0.00 0.00 44 978.9
20210922031446 81 67 5.0 14.0 0.00 0.00 0.00 44 978.9
20210922030947 81 59 4.0 14.0 0.00 0.00 0.00 44 978.8
20210922025943 81 64 4.0 12.0 0.00 0.00 0.00 45 978.6
20210922025444 81 71 4.0 15.0 0.00 0.00 0.00 45 978.4
20210922024943 82 46 3.0 15.0 0.00 0.00 0.00 46 978.4
20210922024437 82 113 3.0 9.0 0.00 0.00 0.00 48 978.4
20210922023935 82 84 4.0 12.0 0.00 0.00 0.00 49 978.4
20210922023433 82 17 3.0 12.0 0.00 0.00 0.00 50 978.2
20210922022933 82 55 3.0 11.0 0.00 0.00 0.00 51 978.2
20210922022434 82 67 3.0 11.0 0.00 0.00 0.00 51 978.2
20210922021932 82 84 3.0 9.0 0.00 0.00 0.00 52 978.1
20210922021431 82 60 3.0 11.0 0.00 0.00 0.00 52 978.2
20210922020932 82 40 3.0 13.0 0.00 0.00 0.00 52 977.9
20210922020429 82 16 3.0 13.0 0.00 0.00 0.00 53 977.9
20210922015930 83 73 3.0 10.0 0.00 0.00 0.00 53 977.8
20210922015432 83 44 3.0 11.0 0.00 0.00 0.00 53 977.7
20210922014930 83 36 3.0 11.0 0.00 0.00 0.00 53 977.6
20210922014429 83 85 3.0 10.0 0.00 0.00 0.00 53 977.5
20210922013930 83 60 3.0 11.0 0.00 0.00 0.00 53 977.5
20210922013428 83 60 4.0 12.0 0.00 0.00 0.00 53 977.5
20210922012928 83 68 4.0 17.0 0.00 0.00 0.00 53 977.5
20210922012428 83 246 3.0 17.0 0.00 0.00 0.00 54 977.4
20210922011921 83 23 2.0 8.0 0.00 0.00 0.00 55 977.3
20210922011416 83 22 2.0 6.0 0.00 0.00 0.00 55 977.2
20210922010909 83 91 1.0 6.0 0.00 0.00 0.00 55 977.1
20210922010403 83 355 2.0 8.0 0.00 0.00 0.00 55 977.1
20210922005858 83 5 2.0 8.0 0.00 0.00 0.00 55 977.0
20210922005351 83 42 1.0 8.0 0.00 0.00 0.00 55 976.9
20210922004845 83 348 1.0 7.0 0.00 0.00 0.00 55 976.8
20210922004338 83 59 1.0 8.0 0.00 0.00 0.00 55 976.8
20210922003833 83 345 1.0 8.0 0.00 0.00 0.00 55 976.8
20210922003327 83 25 2.0 6.0 0.00 0.00 0.00 55 976.7
20210922002821 83 328 2.0 6.0 0.00 0.00 0.00 55 976.6
20210922002315 83 57 1.0 6.0 0.00 0.00 0.00 55 976.5
20210922001810 83 325 1.0 5.0 0.00 0.00 0.00 54 976.4
20210922001304 83 64 2.0 9.0 0.00 0.00 0.00 54 976.3
20210922000757 84 286 2.0 9.0 0.00 0.00 0.00 54 976.2
20210922000254 84 49 2.0 8.0 0.00 0.00 0.00 54 976.2
20210921235745 84 34 2.0 8.0 0.00 0.00 0.00 54 976.2
20210921235239 84 327 2.0 8.0 0.00 0.00 0.00 54 976.2
20210921234733 84 327 2.0 8.0 0.00 0.00 0.00 54 976.1
20210921234231 84 315 1.0 5.0 0.00 0.00 0.00 53 976.1
20210921233732 84 53 1.0 5.0 0.00 0.00 0.00 53 976.0
20210921233229 85 32 1.0 4.0 0.00 0.00 0.00 53 975.9
20210921232730 85 36 2.0 5.0 0.00 0.00 0.00 53 976.0
20210921232230 85 0 2.0 5.0 0.00 0.00 0.00 53 976.0
20210921231730 85 36 1.0 6.0 0.00 0.00 0.00 53 975.9
20210921231229 85 5 2.0 9.0 0.00 0.00 0.00 53 975.9
20210921230727 85 296 3.0 9.0 0.00 0.00 0.00 52 975.9
20210921230228 85 349 3.0 13.0 0.00 0.00 0.00 52 975.8
20210921225727 85 26 3.0 13.0 0.00 0.00 0.00 51 975.8
20210921225227 86 330 2.0 6.0 0.00 0.00 0.00 52 975.8
20210921224727 86 19 2.0 11.0 0.00 0.00 0.00 52 975.8
20210921224228 86 305 2.0 11.0 0.00 0.00 0.00 52 975.7
20210921223728 85 52 3.0 10.0 0.00 0.00 0.00 52 975.7
20210921223227 85 86 3.0 11.0 0.00 0.00 0.00 52 975.6
20210921222727 85 54 3.0 16.0 0.00 0.00 0.00 52 975.7
20210921222229 85 0 3.0 16.0 0.00 0.00 0.00 53 975.6
20210921221724 85 48 3.0 13.0 0.00 0.00 0.00 53 975.4
20210921221216 85 334 4.0 14.0 0.00 0.00 0.00 53 975.4
20210921220717 86 76 3.0 14.0 0.00 0.00 0.00 52 975.5
20210921220215 86 18 3.0 13.0 0.00 0.00 0.00 53 975.4
20210921215715 87 338 4.0 13.0 0.00 0.00 0.00 62 975.3
20210921215213 87 18 3.0 9.0 0.00 0.00 0.00 64 975.0
20210921214713 87 16 3.0 11.0 0.00 0.00 0.00 63 975.1
20210921214213 87 13 4.0 13.0 0.00 0.00 0.00 63 975.0
20210921213711 87 67 4.0 13.0 0.00 0.00 0.00 63 975.1
20210921213211 87 91 4.0 16.0 0.00 0.00 0.00 63 975.2
20210921212711 87 38 5.0 16.0 0.00 0.00 0.00 64 975.1
20210921212212 87 42 5.0 16.0 0.00 0.00 0.00 64 975.0
20210921211711 87 89 4.0 16.0 0.00 0.00 0.00 64 975.1
20210921211211 87 53 5.0 14.0 0.00 0.00 0.00 64 975.1
20210921210708 87 61 5.0 18.0 0.00 0.00 0.00 64 975.0
20210921210209 87 29 6.0 18.0 0.00 0.00 0.00 65 975.0
20210921205709 87 27 6.0 13.0 0.00 0.00 0.00 65 974.9
20210921205209 88 347 5.0 13.0 0.00 0.00 0.00 64 974.9
20210921204709 89 46 4.0 15.0 0.00 0.00 0.00 64 974.8
20210921204209 89 76 5.0 15.0 0.00 0.00 0.00 64 974.7
20210921203709 90 46 5.0 16.0 0.00 0.00 0.00 62 974.7
20210921203209 92 65 4.0 16.0 0.00 0.00 0.00 58 974.7
20210921202709 93 355 3.0 12.0 0.00 0.00 0.00 53 974.6
20210921202205 94 84 2.0 9.0 0.00 0.00 0.00 52 974.6
20210921201705 93 52 3.0 11.0 0.00 0.00 0.00 53 974.7
20210921201204 93 61 4.0 12.0 0.00 0.00 0.00 55 974.8
20210921200704 93 33 3.0 12.0 0.00 0.00 0.00 54 974.9
20210921200205 93 33 4.0 9.0 0.00 0.00 0.00 55 975.0
20210921195704 92 54 4.0 12.0 0.00 0.00 0.00 54 975.1
20210921195205 91 59 4.0 12.0 0.00 0.00 0.00 56 975.1
20210921194704 92 41 3.0 12.0 0.00 0.00 0.00 54 975.2
20210921194204 92 54 2.0 8.0 0.00 0.00 0.00 54 975.3
20210921193706 92 44 2.0 6.0 0.00 0.00 0.00 57 975.3
20210921193157 92 91 2.0 6.0 0.00 0.00 0.00 57 975.4
20210921192650 92 32 2.0 11.0 0.00 0.00 0.00 58 975.5
20210921192147 91 349 2.0 11.0 0.00 0.00 0.00 60 975.5
20210921191648 91 96 2.0 7.0 0.00 0.00 0.00 59 975.6
20210921191145 91 57 2.0 5.0 0.00 0.00 0.00 59 975.8
20210921190643 91 63 2.0 5.0 0.00 0.00 0.00 59 975.8
20210921190140 91 75 2.0 5.0 0.00 0.00 0.00 59 975.8
20210921185638 91 61 3.0 8.0 0.00 0.00 0.00 59 975.8
20210921185138 91 307 3.0 8.0 0.00 0.00 0.00 57 975.9
20210921184639 92 14 2.0 6.0 0.00 0.00 0.00 57 975.8
20210921184136 92 121 1.0 4.0 0.00 0.00 0.00 57 975.9
20210921183637 91 280 2.0 4.0 0.00 0.00 0.00 58 976.0
20210921183137 91 49 2.0 4.0 0.00 0.00 0.00 57 976.1
20210921182636 91 28 1.0 4.0 0.00 0.00 0.00 60 976.1
20210921182137 91 57 2.0 4.0 0.00 0.00 0.00 59 976.0
20210921181637 91 316 2.0 5.0 0.00 0.00 0.00 58 976.1
20210921181137 91 132 1.0 5.0 0.00 0.00 0.00 58 976.1
20210921180635 91 96 2.0 7.0 0.00 0.00 0.00 59 976.2
20210921180134 91 34 2.0 7.0 0.00 0.00 0.00 61 976.2
20210921175628 91 132 2.0 7.0 0.00 0.00 0.00 62 976.1
20210921175122 91 173 2.0 7.0 0.00 0.00 0.00 62 976.2
20210921174616 91 121 2.0 7.0 0.00 0.00 0.00 62 976.1
20210921174110 91 17 1.0 4.0 0.00 0.00 0.00 63 976.3
20210921173605 90 111 1.0 3.0 0.00 0.00 0.00 63 976.2
20210921173057 90 36 2.0 5.0 0.00 0.00 0.00 62 976.3
20210921172552 90 121 2.0 7.0 0.00 0.00 0.00 62 976.2
20210921172046 90 80 2.0 7.0 0.00 0.00 0.00 63 976.3
20210921171540 89 161 1.0 5.0 0.00 0.00 0.00 65 976.4
20210921171035 89 61 1.0 4.0 0.00 0.00 0.00 67 976.3
20210921170527 88 66 1.0 5.0 0.00 0.00 0.00 66 976.3
20210921170022 89 64 2.0 5.0 0.00 0.00 0.00 66 976.4
20210921165516 89 43 2.0 6.0 0.00 0.00 0.00 66 976.3
20210921165010 89 81 2.0 7.0 0.00 0.00 0.00 65 976.4
20210921164505 88 84 2.0 7.0 0.00 0.00 0.00 67 976.3
20210921163958 88 41 1.0 4.0 0.00 0.00 0.00 66 976.3
20210921163452 88 63 1.0 4.0 0.00 0.00 0.00 67 976.3
20210921162946 88 88 1.0 4.0 0.00 0.00 0.00 68 976.2
20210921162446 87 17 1.0 4.0 0.00 0.00 0.00 71 976.2
20210921161946 87 36 2.0 4.0 0.00 0.00 0.00 70 976.2
20210921161446 86 304 1.0 4.0 0.00 0.00 0.00 69 976.3
20210921160944 87 109 2.0 4.0 0.00 0.00 0.00 70 976.2
20210921160445 86 85 2.0 4.0 0.00 0.00 0.00 70 976.1
20210921155944 86 81 1.0 4.0 0.00 0.00 0.00 71 976.0
20210921155446 86 89 1.0 3.0 0.00 0.00 0.00 72 975.8
20210921154942 85 46 1.0 3.0 0.00 0.00 0.00 73 975.8
20210921154440 85 103 1.0 5.0 0.00 0.00 0.00 74 975.8
20210921153940 85 46 1.0 5.0 0.00 0.00 0.00 75 975.8
20210921153440 84 65 2.0 6.0 0.00 0.00 0.00 76 975.7
20210921152940 84 113 1.0 6.0 0.00 0.00 0.00 76 975.7
20210921152439 84 62 1.0 6.0 0.00 0.00 0.00 76 975.7
20210921151938 84 153 2.0 6.0 0.00 0.00 0.00 75 975.6
20210921151436 84 93 1.0 4.0 0.00 0.00 0.00 76 975.5
20210921150936 84 88 1.0 4.0 0.00 0.00 0.00 76 975.6
20210921150434 83 160 1.0 4.0 0.00 0.00 0.00 77 975.5
20210921145936 83 164 1.0 4.0 0.00 0.00 0.00 79 975.4
20210921145430 82 161 1.0 4.0 0.00 0.00 0.00 80 975.4
20210921144928 81 177 1.0 3.0 0.00 0.00 0.00 81 975.3
20210921144428 81 184 1.0 3.0 0.00 0.00 0.00 82 975.3
20210921143928 80 215 1.0 2.0 0.00 0.00 0.00 83 975.2
20210921143429 80 213 1.0 2.0 0.00 0.00 0.00 82 975.2
20210921142927 81 213 1.0 4.0 0.00 0.00 0.00 82 975.1
20210921142425 81 204 2.0 4.0 0.00 0.00 0.00 82 974.9
20210921141922 81 148 2.0 4.0 0.00 0.00 0.00 82 974.8
20210921141422 81 118 1.0 5.0 0.00 0.00 0.00 84 974.6
20210921140923 80 242 1.0 5.0 0.00 0.00 0.00 84 974.6
20210921140422 79 163 1.0 5.0 0.00 0.00 0.00 86 974.6
20210921135919 79 149 1.0 5.0 0.00 0.00 0.00 87 974.7
20210921135420 79 189 1.0 4.0 0.00 0.00 0.00 87 974.7
20210921134919 78 194 1.0 3.0 0.00 0.00 0.00 87 974.7
20210921134420 78 185 1.0 3.0 0.00 0.00 0.00 88 974.7